Weather History for KDAN - November, 2014

Change the Weather History Date:

Sunday, November 9, 2014

  Actual Average Record
Temperature  
Mean Temperature 50 °F 52 °F  
Max Temperature 62 °F 63 °F 82 °F (1975)
Min Temperature 37 °F 40 °F 21 °F (1967)
Degree Days  
Heating Degree Days 15 13  
Month to date heating degree days 136 109  
Since 1 July heating degree days 305 342  
Cooling Degree Days 0 0  
Month to date cooling degree days 0 0  
Year to date cooling degree days 1418 1436  
Moisture  
Dew Point 38 °F    
Average Humidity 67    
Maximum Humidity 92    
Minimum Humidity 42    
Precipitation  
Precipitation 0.00 in 0.13 in 0.53 in (1996)
Month to date precipitation 0.44 1.11  
Year to date precipitation 38.20 38.89  
Snow  
Snow 0.00 in - - ()
Month to date snowfall 0.0  
Since 1 July snowfall 0.0  
Since 1 September snowfall 0.0  
Snow Depth 0.00 in    
Sea Level Pressure  
Sea Level Pressure 29.97 in    
Wind  
Wind Speed 2 mph (SW)    
Max Wind Speed 13 mph    
Max Gust Speed 16 mph    
Visibility 10 miles    
Events      
T = Trace of Precipitation, MM = Missing Value Source: NWS Daily Summary

Daily Weather History Graph

Daily Weather History Graph

Search for Another Location

Airport or City:

Trip Planner

Search our weather history database for the weather conditions in past years. The results will help you decide how hot, cold, wet, or windy it might be!

Date:

Astronomy

Nov. 09, 2014 Rise Set
Actual Time 6:48 AM EST 5:13 PM EST
Civil Twilight 6:21 AM EST 5:40 PM EST
Nautical Twilight 5:50 AM EST 6:11 PM EST
Astronomical Twilight 5:20 AM EST 6:41 PM EST
Moon 7:46 PM EST (11/9) 9:18 AM EST (11/9)
Length of Visible Light 11h 18m
Length of Day
10h 24m
Waning Gibbous, 91% of the Moon is Illuminated
Nov 9
Waning Gibbous
Nov 14
Last Quarter
Nov 22
New
Nov 29
First Quarter
Dec 6
Full

Hourly Weather History & Observations

Time (EST) Temp. Windchill Dew Point Humidity Pressure Visibility Wind Dir Wind Speed Gust Speed Precip Events Conditions
12:53 AM 43.0 °F 41.3 °F 37.0 °F 80% 29.95 in 10.0 mi SW 3.5 mph - N/A   Clear
1:53 AM 43.0 °F - 37.0 °F 80% 29.94 in 10.0 mi Calm Calm - N/A   Clear
2:53 AM 41.0 °F - 37.0 °F 86% 29.93 in 10.0 mi Calm Calm - N/A   Clear
3:53 AM 41.0 °F 39.0 °F 37.0 °F 86% 29.93 in 10.0 mi WSW 3.5 mph - N/A   Clear
4:53 AM 39.9 °F 36.7 °F 36.0 °F 86% 29.95 in 10.0 mi SW 4.6 mph - N/A   Clear
5:53 AM 37.9 °F 35.5 °F 35.1 °F 89% 29.96 in 10.0 mi SSW 3.5 mph - N/A   Clear
6:53 AM 37.9 °F - 35.1 °F 89% 29.98 in 10.0 mi Calm Calm - N/A   Clear
7:53 AM 41.0 °F - 37.9 °F 89% 30.00 in 10.0 mi Calm Calm - N/A   Clear
8:53 AM 45.0 °F 43.5 °F 39.0 °F 80% 30.01 in 10.0 mi SW 3.5 mph - N/A   Clear
9:53 AM 54.0 °F - 41.0 °F 62% 30.01 in 10.0 mi Calm Calm - N/A   Clear
10:53 AM 57.0 °F - 39.0 °F 51% 30.01 in 10.0 mi NNW 9.2 mph - N/A   Clear
11:53 AM 57.0 °F - 37.0 °F 47% 29.98 in 10.0 mi Calm Calm - N/A   Clear
12:53 PM 57.9 °F - 37.9 °F 47% 29.95 in 10.0 mi Calm Calm - N/A   Clear
1:53 PM 60.1 °F - 37.9 °F 44% 29.93 in 10.0 mi West 5.8 mph - N/A   Clear
2:53 PM 61.0 °F - 37.9 °F 42% 29.92 in 10.0 mi Variable 3.5 mph - N/A   Clear
3:53 PM 60.1 °F - 39.9 °F 47% 29.92 in 10.0 mi Calm Calm - N/A   Clear
4:53 PM 57.0 °F - 42.1 °F 57% 29.93 in 10.0 mi Calm Calm - N/A   Clear
5:53 PM 46.9 °F - 41.0 °F 80% 29.95 in 10.0 mi East 3.5 mph - N/A   Clear
6:53 PM 46.0 °F 44.8 °F 39.9 °F 79% 29.98 in 10.0 mi East 3.5 mph - N/A   Clear
7:53 PM 44.1 °F - 39.0 °F 82% 29.99 in 10.0 mi Calm Calm - N/A   Clear
8:53 PM 42.1 °F - 37.9 °F 85% 30.01 in 10.0 mi Calm Calm - N/A   Clear
9:53 PM 39.9 °F - 37.0 °F 89% 30.03 in 10.0 mi Calm Calm - N/A   Clear
10:53 PM 39.0 °F - 36.0 °F 89% 30.03 in 8.0 mi Calm Calm - N/A   Clear
11:53 PM 37.9 °F - 35.1 °F 89% 30.04 in 10.0 mi Calm Calm - N/A   Clear